SCP
0 0 0 0 0 0 0 0 0 0 0 0 0 0 0 0 0 0 0 0 0 0 0 0 0 0 0 0 0 0 0 0 0 0 0 0 0 0 0 0 0 0 0
0 0 0 0 0 0 0 0 0 0 0 0 0 0 0 0 0 0 0 0 0 0 0 0 0 0 0 0 0 0 0 0 0 0 0 0 0 0 0 0 0 0 0
0 0 0 0 0 0 0 0 0 0 0 0 0 0 0 0 0 0 0 0 0 0 0 0 0 0 0 0 0 0 0 0 0 0 0 0 0 0 0 0 0 0 0
0 0 0 0 0 0 0 0 0 0 0 0 0 0 0 0 0 0 0 0 0 0 0 0 0 0 0 0 0 0 0 0 0 0 0 0 0 0 0 0 0 0 0
0 0 0 0 0 0 0 0 0 0 0 0 0 0 0 0 0 0 0 0 0 0 0 0 0 0 0 0 0 0 0 0 0 0 0 0 0 0 0 0 0 0 0
0 0 0 0 0 0 0 0 0 0 0 0 0 0 0 0 0 0 0 0 0 0 0 0 0 0 0 0 0 0 0 0 0 0 0 0 0 0 0 0 0 0 0
0 0 0 0 0 0 0 0 0 0 0 0 0 0 0 0 0 0 0 0 0 0 0 0 0 0 0 0 0 0 0 0 0 0 0 0 0 0 0 0 0 0 0
0 0 0 0 0 0 0 0 0 0 0 0 0 0 0 0 0 0 0 0 0 0 0 0 0 0 0 0 0 0 0 0 0 0 0 0 0 0 0 0 0 0 0
0 0 0 0 0 0 0 0 0 0 0 0 0 0 0 0 0 0 0 0 0 0 0 0 0 0 0 0 0 0 0 0 0 0 0 0 0 0 0 0 0 0 0
0 0 0 0 0 0 0 0 0 0 0 0 0 0 0 0 0 0 0 0 0 0 0 0 0 0 0 0 0 0 0 0 0 0 0 0 0 0 0 0 0 0 0
0 0 0 0 0 0 0 0 0 0 0 0 0 0 0 0 0 0 0 0 0 0 0 0 0 0 0 0 0 0 0 0 0 0 0 0 0 0 0 0 0 0 0
0 0 0 0 0 0 0 0 0 0 0 0 0 0 0 0 0 0 0 0 0 0 0 0 0 0 0 0 0 0 0 0 0 0 0 0 0 0 0 0 0 0 0
0 0 0 0 0 0 0 0 0 0 0 0 0 0 0 0 0 0 0 0 0 0 0 0 0 0 0 0 0 0 0 0 0 0 0 0 0 0 0 0 0 0 0
0 0 0 0 0 0 0 0 0 0 0 0 0 0 0 0 0 0 0 0 0 0 0 0 0 0 0 0 0 0 0 0 0 0 0 0 0 0 0 0 0 0 0
0 0 0 0 0 0 0 0 0 0 0 0 0 0 0 0 0 0 0 0 0 0 0 0 0 0 0 0 0 0 0 0 0 0 0 0 0 0 0 0 0 0 0
0 0 0 0 0 0 0 0 0 0 0 0 0 0 0 0 0 0 0 0 0 0 0 0 0 0 0 0 0 0 0 0 0 0 0 0 0 0 0 0 0 0 0
0 0 0 0 0 0 0 0 0 0 0 0 0 0 0 0 0 0 0 0 0 0 0 0 0 0 0 0 0 0 0 0 0 0 0 0 0 0 0 0 0 0 0
0 0 0 0 0 0 0 0 0 0 0 0 0 0 0 0 0 0 0 0 0 0 0 0 0 0 0 0 0 0 0 0 0 0 0 0 0 0 0 0 0 0 0
0 0 0 0 0 0 0 0 0 0 0 0 0 0 0 0 0 0 0 0 0 0 0 0 0 0 0 0 0 0 0 0 0 0 0 0 0 0 0 0 0 0 0
0 0 0 0 0 0 0 0 0 0 0 0 0 0 0 0 0 0 0 0 0 0 0 0 0 0 0 0 0 0 0 0 0 0 0 0 0 0 0 0 0 0 0
0 0 0 0 0 0 0 0 0 0 0 0 0 0 0 0 0 0 0 0 0 0 0 0 0 0 0 0 0 0 0 0 0 0 0 0 0 0 0 0 0 0 0
0 0 0 0 0 0 0 0 0 0 0 0 0 0 0 0 0 0 0 0 0 0 0 0 0 0 0 0 0 0 0 0 0 0 0 0 0 0 0 0 0 0 0
0 0 0 0 0 0 0 0 0 0 0 0 0 0 0 0 0 0 0 0 0 0 0 0 0 0 0 0 0 0 0 0 0 0 0 0 0 0 0 0 0 0 0
0 0 0 0 0 0 0 0 0 0 0 0 0 0 0 0 0 0 0 0 0 0 0 0 0 0 0 0 0 0 0 0 0 0 0 0 0 0 0 0 0 0 0
0 0 0 0 0 0 0 0 0 0 0 0 0 0 0 0 0 0 0 0 0 0 0 0 0 0 0 0 0 0 0 0 0 0 0 0 0 0 0 0 0 0 0
0 0 0 0 0 0 0 0 0 0 0 0 0 0 0 0 0 0 0 0 0 0 0 0 0 0 0 0 0 0 0 0 0 0 0 0 0 0 0 0 0 0 0
Wind_Speed
1 1 3 6 7 8 9 9 9 10 10 11 12 12 12 12 12 12 12 12 12 11 12 12 12 13 13 13 13 13 13 13 13 13 12 13 13 13 13 13 11 7 13
3 2 4 6 8 8 9 9 9 10 10 11 12 12 12 12 12 12 12 12 12 12 12 12 12 13 13 13 12 12 12 12 12 11 11 10 11 12 12 12 11 7 11
5 3 4 6 8 8 9 10 9 10 10 11 11 12 12 12 12 12 12 12 12 13 12 12 13 13 13 12 12 11 11 11 11 10 9 5 6 10 11 11 11 11 10
5 4 4 6 8 8 9 10 10 9 10 11 11 11 11 11 12 12 12 12 13 13 13 12 12 12 12 11 11 11 10 11 11 9 5 4 3 8 10 10 9 9 9
5 4 4 7 8 8 9 9 10 9 9 10 11 11 11 11 11 12 12 12 12 12 12 12 12 11 11 11 10 10 10 10 10 7 4 4 3 7 9 9 8 8 8
5 4 4 7 8 8 8 9 10 10 9 10 10 11 11 11 11 11 11 11 11 11 11 11 11 10 10 10 10 9 9 9 8 4 4 3 2 6 8 8 8 7 7
5 4 4 7 7 7 8 8 9 10 9 10 10 11 11 11 11 10 10 11 11 11 10 10 10 10 10 9 9 9 9 9 5 4 4 3 3 6 7 7 7 6 7
6 5 5 7 7 7 7 8 8 9 9 9 10 10 10 10 10 10 10 10 10 10 10 10 10 9 9 9 9 9 9 7 5 4 3 2 4 6 6 6 6 6 6
6 5 4 4 5 6 7 7 8 9 9 9 9 9 9 9 9 9 9 9 9 9 9 9 9 9 9 9 9 9 9 8 4 2 2 2 4 5 6 6 6 6 5
6 5 4 4 4 4 4 6 8 9 9 9 9 9 9 8 8 8 8 8 8 8 8 8 8 9 9 9 9 9 9 6 3 3 2 2 4 5 5 6 6 6 6
5 4 4 4 4 4 3 5 6 8 9 8 7 9 7 4 4 4 6 7 8 8 8 8 8 8 8 8 8 9 7 3 3 2 2 3 4 5 5 6 6 6 6
3 3 3 4 3 3 3 3 3 3 4 4 4 4 3 3 3 4 6 7 8 7 7 7 8 7 6 3 5 6 3 3 2 2 2 4 4 4 5 5 6 5 5
4 3 2 3 3 3 2 2 2 2 2 3 4 4 3 3 3 3 2 3 4 5 3 4 4 3 3 2 2 3 3 2 2 2 2 4 4 4 4 4 5 5 5
4 3 2 2 3 2 2 2 2 2 2 2 2 3 3 2 2 2 2 2 2 2 2 2 2 3 3 3 3 3 3 2 2 2 2 5 5 4 4 4 4 4 5
4 3 2 2 3 2 3 2 2 2 1 2 2 2 3 2 2 2 1 2 2 2 2 2 2 3 3 3 3 3 3 3 2 2 2 5 6 5 5 4 5 5 5
5 4 3 3 3 3 2 2 2 2 1 2 1 1 2 2 2 1 2 1 1 1 1 1 2 2 2 2 3 3 2 2 2 2 2 3 6 6 5 5 5 5 5
5 4 4 4 3 3 3 2 2 2 2 2 1 1 2 2 2 2 1 1 1 1 2 2 2 2 2 2 3 3 2 2 1 2 2 2 3 5 5 5 5 5 5
5 5 4 3 3 3 3 2 2 2 2 1 1 1 2 2 2 2 2 1 1 1 2 2 2 2 2 2 2 2 2 2 2 1 1 2 2 2 4 6 6 6 6
6 6 4 4 4 3 3 2 2 2 2 1 1 1 1 2 2 2 1 1 1 2 2 2 2 1 1 2 2 2 2 2 2 2 2 2 2 2 2 4 7 7 7
6 6 5 4 4 3 3 2 2 2 2 1 1 1 1 1 2 2 2 2 2 2 2 1 2 2 1 1 2 2 2 2 1 1 1 1 2 3 3 3 3 5 8
5 5 5 4 4 3 3 2 2 1 1 1 1 1 1 1 2 2 2 1 1 1 1 2 2 2 2 2 2 2 2 2 2 1 2 2 2 3 3 3 2 2 3
6 6 5 5 4 4 3 2 2 2 1 1 1 1 1 1 1 1 2 1 1 1 2 2 2 1 1 2 1 1 2 3 3 2 2 2 2 2 3 3 2 2 2
6 6 5 5 5 4 3 2 2 2 2 1 0 0 1 1 1 1 2 2 1 1 1 1 1 2 1 1 1 1 1 1 2 2 2 2 2 2 2 2 2 2 3
6 5 5 5 5 4 4 4 4 3 3 2 2 1 0 1 1 1 1 2 1 1 1 0 1 1 2 1 1 1 1 1 1 2 2 2 2 2 2 3 3 2 2
5 4 4 4 4 4 4 5 5 3 2 1 1 2 1 1 1 1 1 1 1 1 1 0 0 0 1 1 1 0 0 0 1 1 3 3 3 2 2 2 2 2 2
3 3 3 4 3 4 4 4 5 4 3 3 3 3 2 1 1 1 1 1 1 1 1 1 1 1 1 1 1 1 1 1 1 1 2 3 4 3 3 2 1 2 2
Wind_Direction
192 193 125 109 105 102 98 97 97 96 96 96 93 90 88 86 86 87 87 86 86 87 88 87 86 85 85 83 81 81 82 79 76 73 74 77 79 78 77 76 74 68 74
161 144 117 109 105 103 102 97 97 97 96 98 97 93 89 87 87 87 84 85 84 85 86 86 85 85 86 84 82 80 83 80 74 69 68 72 77 79 78 79 77 75 74
122 115 111 107 106 103 103 99 96 97 96 97 97 95 92 90 88 86 83 82 80 81 82 85 84 84 83 80 79 78 80 80 75 71 65 56 72 82 80 78 76 75 74
114 104 106 98 104 105 104 104 99 99 99 98 97 95 93 91 89 87 86 82 79 77 78 82 82 82 81 78 76 75 76 77 76 70 55 49 62 84 83 78 74 72 72
97 88 99 95 103 105 103 105 105 101 100 101 99 97 94 92 91 88 87 84 82 78 77 79 80 80 78 76 73 73 74 75 73 64 53 47 49 81 84 81 77 73 71
92 84 97 97 100 103 103 105 107 104 104 103 101 100 97 94 92 87 87 86 84 81 79 78 78 77 75 72 72 71 73 73 69 59 51 45 49 78 84 84 83 78 73
93 81 90 89 96 100 105 107 109 106 105 105 103 100 98 96 93 90 88 86 85 83 80 77 76 78 75 70 67 67 69 71 69 58 48 38 64 80 81 83 80 78 75
98 82 77 79 84 90 98 105 112 111 108 106 104 102 99 98 96 92 89 88 87 84 80 76 73 74 74 68 64 62 65 68 68 58 43 37 66 77 80 79 76 72 72
84 77 68 71 73 75 83 95 102 105 107 103 101 99 97 97 97 94 90 88 89 87 82 78 74 71 71 67 62 59 59 61 62 53 43 37 63 72 74 75 73 73 72
78 71 62 55 59 64 75 87 96 96 97 93 90 87 86 87 90 88 84 83 85 86 83 79 74 69 64 60 59 56 52 53 47 41 28 41 57 66 69 69 68 70 71
79 69 68 59 53 56 71 76 85 90 87 85 84 82 78 68 67 74 73 77 78 81 80 75 72 67 61 53 51 48 47 40 42 33 20 44 55 61 70 70 67 68 66
100 80 75 73 64 59 70 73 73 75 76 74 78 82 76 69 59 64 65 68 69 69 70 69 63 56 49 40 39 40 37 28 38 27 30 45 52 61 69 68 64 64 61
136 113 86 86 80 73 69 75 73 70 76 74 72 74 80 74 63 56 59 52 52 56 52 51 49 40 36 39 37 35 31 34 21 7 20 34 34 40 55 59 58 55 49
137 131 112 97 90 87 83 82 85 78 80 79 73 76 82 82 69 59 63 58 50 48 50 44 44 41 38 39 43 38 29 30 16 1 13 29 28 30 35 41 39 46 43
144 141 137 120 103 103 98 93 89 80 84 92 86 81 86 93 89 71 59 61 57 52 57 51 47 44 36 34 33 34 26 24 19 7 2 26 29 29 29 34 32 37 33
158 155 150 137 125 112 110 113 110 102 99 96 88 86 92 97 91 90 77 68 58 58 59 62 59 53 39 35 28 25 23 23 24 14 7 14 26 28 26 28 28 26 26
169 160 158 150 133 125 121 118 111 111 109 109 103 94 88 91 92 88 90 76 52 58 68 62 54 49 43 39 26 17 16 11 11 10 16 15 9 23 28 27 24 21 18
164 164 164 153 139 135 128 124 114 106 105 112 107 97 92 88 92 89 84 79 60 69 71 77 63 55 39 27 12 358 360 355 357 356 23 29 21 16 20 26 25 24 22
166 166 165 153 146 142 132 122 113 112 102 93 91 91 84 83 88 95 85 59 70 76 77 75 59 63 47 17 1 4 357 347 337 360 25 25 37 40 24 29 29 24 18
164 163 164 157 149 140 123 104 91 89 88 92 96 87 88 96 98 97 91 62 73 85 73 75 75 51 58 27 19 9 345 338 350 15 11 25 35 43 37 33 28 14 12
159 157 163 162 160 150 146 147 148 145 133 114 113 99 93 96 104 100 91 82 68 88 91 92 89 72 42 35 48 8 350 354 17 21 10 33 32 30 37 32 23 15 360
170 168 167 171 171 169 168 168 161 148 155 161 136 106 106 103 104 112 112 115 90 81 77 78 78 90 52 35 76 65 358 341 345 355 7 36 37 30 29 18 11 8 359
179 178 174 177 176 175 158 130 109 87 70 58 127 178 169 138 124 122 135 123 104 98 119 163 135 124 132 346 38 124 136 247 308 317 350 12 18 18 358 350 355 352 350
189 181 177 177 175 174 160 154 159 167 175 198 199 206 202 145 137 127 142 127 120 117 125 197 128 135 139 180 318 9 162 168 199 303 313 332 345 340 335 341 334 324 341
177 173 175 170 172 172 169 169 174 186 185 165 160 165 179 179 170 165 152 140 152 156 164 139 94 169 173 183 189 202 31 27 196 213 280 306 318 296 298 295 300 307 321
159 160 164 165 173 175 175 174 182 187 179 170 186 190 196 197 191 184 160 167 185 187 194 210 197 211 208 191 201 203 190 194 220 223 261 290 295 294 300 283 280 292 303